This is the latest recevied weather packets stored in our database for station/object KY4LEX. If no packets are shown the sender has not sent any weather packets the latest 10 day(s).
| Time | Temp. | Humidity | Pressure | Rain* | Wind** | Luminosity | Snow |
|---|---|---|---|---|---|---|---|
| 1777896366 | 11.11° C | 88% | 1018.6 hPa | 0 mm | - | 61 W/m² | - |
| 1777896064 | 11.11° C | 87% | 1018.4 hPa | 0 mm | - | 76 W/m² | - |
| 1777895762 | 10.56° C | 88% | 1018.2 hPa | 0 mm | - | 57 W/m² | - |
| 1777895459 | 10.56° C | 89% | 1017.8 hPa | 0 mm | - | 46 W/m² | - |
| 1777895157 | 10.56° C | 89% | 1017.6 hPa | 0 mm | - | 35 W/m² | - |
| 1777894853 | 10.56° C | 89% | 1017.6 hPa | 0 mm | - | 59 W/m² | - |
| 1777894550 | 10.56° C | 90% | 1017.5 hPa | 0 mm | - | 45 W/m² | - |
| 1777894248 | 10° C | 90% | 1017.7 hPa | 0 mm | - | 34 W/m² | - |
| 1777893945 | 10° C | 91% | 1017.7 hPa | 0 mm | - | 28 W/m² | - |
| 1777893641 | 10° C | 90% | 1017.8 hPa | 0 mm | - | 22 W/m² | - |
| 1777893337 | 10° C | 90% | 1017.6 hPa | 0 mm | - | 16 W/m² | - |
| 1777893033 | 10° C | 91% | 1017.7 hPa | 0 mm | - | 14 W/m² | - |
| 1777892731 | 10.56° C | 91% | 1017.7 hPa | 0 mm | - | 11 W/m² | - |
| 1777892427 | 10° C | 90% | 1018 hPa | 0 mm | - | 8 W/m² | - |
| 1777892123 | 10° C | 91% | 1017.8 hPa | 1.78 mm | - | 6 W/m² | - |
| 1777891820 | 10° C | 91% | 1018 hPa | 1.78 mm | - | 3 W/m² | - |
| 1777891517 | 10° C | 91% | 1018.1 hPa | 0 mm | - | 1 W/m² | - |
| 1777891214 | 10° C | 91% | 1018 hPa | 3.05 mm | - | 0 W/m² | - |
| 1777890913 | 10.56° C | 90% | 1018.3 hPa | 3.56 mm | - | 0 W/m² | - |
| 1777890609 | 10.56° C | 88% | 1018.7 hPa | 1.78 mm | - | 0 W/m² | - |
| 1777890304 | 10.56° C | 86% | 1018.9 hPa | 1.27 mm | - | 0 W/m² | - |
| 1777890001 | 10.56° C | 85% | 1018.9 hPa | 1.27 mm | - | 0 W/m² | - |
| 1777889699 | 10.56° C | 85% | 1018.8 hPa | 1.78 mm | - | 0 W/m² | - |
| 1777889395 | 10.56° C | 86% | 1018.8 hPa | 1.78 mm | - | 0 W/m² | - |
| 1777889093 | 11.11° C | 85% | 1018.5 hPa | 1.27 mm | - | 0 W/m² | - |
* Rain latest hour (hover to see other rain measurements)
** Current wind speed in m/s (hover to see current wind gust speed)